Weather History for Fountain Dale, PA

Change the Weather History Date:

Tuesday, April 30, 2013

  Actual Average (KHGR) Record (KHGR)
Temperature  
Mean Temperature 56 °F -  
Max Temperature 59 °F 67 °F 82 °F (2007)
Min Temperature 53 °F 45 °F 36 °F (2006)
Degree Days  
Heating Degree Days 9    
Growing Degree Days 6 (Base 50)    
Moisture  
Dew Point 53 °F    
Average Humidity 90    
Maximum Humidity 94    
Minimum Humidity 82    
Precipitation  
Precipitation 0.13 in - - ()
Sea Level Pressure  
Sea Level Pressure 30.20 in    
Wind  
Wind Speed 1 mph (NNE)    
Max Wind Speed 5 mph    
Max Gust Speed -    
Visibility 4 miles    
Events Rain    
Averages and records for this station are not official NWS values.
T = Trace of Precipitation, MM = Missing Value Source: NWS Daily Summary

Daily Weather History Graph

Daily Weather History Graph

Search for Another Location

Airport:

Trip Planner

Search our weather history database for the weather conditions in past years. The results will help you decide how hot, cold, wet, or windy it might be!

Date:

Astronomy

Apr. 30, 2013 Rise Set
Actual Time 6:11 AM EDT 8:03 PM EDT
Civil Twilight 5:42 AM EDT 8:32 PM EDT
Nautical Twilight 5:06 AM EDT 9:07 PM EDT
Astronomical Twilight 4:28 AM EDT 9:46 PM EDT
Moon 12:24 AM EDT (4/30) 10:37 AM EDT (4/30)
Length of Visible Light 14h 50m
Length of Day
13h 51m
Waning Gibbous, 70% of the Moon is Illuminated
Apr 30
Waning Gibbous
May 2
Last Quarter
May 9
New
May 18
First Quarter
May 25
Full

Hourly Weather History & Observations

Time (EDT) Temp. Dew Point Humidity Pressure Visibility Wind Dir Wind Speed Gust Speed Precip Events Conditions
12:32 AM 53.6 °F 51.8 °F 94% 30.11 in 3.0 mi Calm Calm - 0.01 in   Overcast
12:53 AM 54.0 °F 52.0 °F 93% 30.11 in 3.0 mi Calm Calm - 0.01 in   Overcast
1:53 AM 54.0 °F 52.0 °F 93% 30.11 in 4.0 mi Calm Calm - N/A   Overcast
2:53 AM 54.0 °F 52.0 °F 93% 30.10 in 5.0 mi Calm Calm - 0.01 in   Overcast
3:25 AM 53.6 °F 51.8 °F 94% 30.10 in 2.0 mi Calm Calm - 0.00 in Rain Light Rain
3:38 AM 53.6 °F 51.8 °F 94% 30.11 in 4.0 mi Calm Calm - 0.00 in   Overcast
3:53 AM 54.0 °F 52.0 °F 93% 30.11 in 4.0 mi North 3.5 mph - 0.00 in   Overcast
4:53 AM 53.1 °F 51.1 °F 93% 30.12 in 7.0 mi Calm Calm - 0.01 in   Overcast
5:53 AM 53.1 °F 51.1 °F 93% 30.14 in 5.0 mi North 3.5 mph - N/A   Overcast
7:12 AM 53.6 °F 51.8 °F 94% 30.16 in 1.0 mi NNE 4.6 mph - 0.02 in Rain Light Rain
7:53 AM 53.1 °F 51.1 °F 93% 30.18 in 1.2 mi Variable 3.5 mph - 0.03 in   Overcast
8:53 AM 54.0 °F 52.0 °F 93% 30.19 in 1.2 mi North 4.6 mph - 0.02 in Rain Light Rain
9:53 AM 54.0 °F 52.0 °F 93% 30.20 in 1.2 mi Calm Calm - 0.02 in Rain Light Rain
10:29 AM 53.6 °F 51.8 °F 94% 30.21 in 2.0 mi Calm Calm - 0.02 in Rain Light Rain
10:37 AM 55.4 °F 51.8 °F 88% 30.21 in 4.0 mi Calm Calm - 0.02 in   Overcast
10:53 AM 55.0 °F 52.0 °F 89% 30.21 in 5.0 mi Calm Calm - 0.02 in   Overcast
11:07 AM 55.4 °F 51.8 °F 88% 30.21 in 1.8 mi Calm Calm - 0.01 in Rain Light Rain
11:29 AM 55.4 °F 51.8 °F 88% 30.21 in 3.0 mi Variable 3.5 mph - 0.02 in   Overcast
11:37 AM 55.4 °F 51.8 °F 88% 30.21 in 1.8 mi Calm Calm - 0.02 in Rain Light Rain
12:14 PM 55.4 °F 51.8 °F 88% 30.21 in 2.5 mi Calm Calm - 0.01 in   Overcast
12:23 PM 55.4 °F 53.6 °F 94% 30.21 in 1.2 mi Calm Calm - 0.02 in Rain Light Rain
1:05 PM 55.4 °F 53.6 °F 94% 30.20 in 6.0 mi Calm Calm - 0.00 in Rain Light Rain
1:53 PM 57.0 °F 53.1 °F 87% 30.21 in 7.0 mi Calm Calm - 0.00 in   Overcast
2:53 PM 57.0 °F 54.0 °F 89% 30.22 in 5.0 mi Calm Calm - N/A   Overcast
3:14 PM 57.2 °F 53.6 °F 88% 30.22 in 2.5 mi NNE 4.6 mph - N/A   Overcast
3:29 PM 57.2 °F 53.6 °F 88% 30.23 in 1.5 mi Calm Calm - N/A   Overcast
3:45 PM 57.2 °F 53.6 °F 88% 30.23 in 2.0 mi Calm Calm - 0.01 in   Overcast
3:53 PM 57.0 °F 54.0 °F 89% 30.23 in 1.5 mi NNE 3.5 mph - 0.01 in   Overcast
4:24 PM 57.2 °F 53.6 °F 88% 30.23 in 3.0 mi Calm Calm - N/A   Overcast
4:53 PM 57.9 °F 54.0 °F 87% 30.23 in 8.0 mi North 4.6 mph - N/A   Overcast
5:03 PM 59.0 °F 53.6 °F 82% 30.23 in 10.0 mi NNE 3.5 mph - N/A   Overcast
5:17 PM 57.2 °F 55.4 °F 94% 30.23 in 5.0 mi Calm Calm - N/A   Overcast
5:53 PM 57.9 °F 54.0 °F 87% 30.23 in 4.0 mi Calm Calm - N/A   Overcast
6:20 PM 57.2 °F 53.6 °F 88% 30.24 in 2.5 mi Calm Calm - 0.00 in Rain Light Rain
6:37 PM 57.2 °F 53.6 °F 88% 30.24 in 3.0 mi Calm Calm - 0.00 in   Overcast
6:53 PM 57.0 °F 54.0 °F 89% 30.24 in 6.0 mi Calm Calm - 0.00 in   Overcast
7:44 PM 57.2 °F 53.6 °F 88% 30.24 in 9.0 mi Calm Calm - N/A   Overcast
7:53 PM 57.0 °F 53.1 °F 87% 30.24 in 9.0 mi Calm Calm - N/A   Overcast
8:53 PM 55.9 °F 53.1 °F 90% 30.25 in 8.0 mi Calm Calm - N/A   Overcast
9:53 PM 55.0 °F 52.0 °F 89% 30.27 in 4.0 mi Calm Calm - N/A   Overcast
10:53 PM 54.0 °F 52.0 °F 93% 30.28 in 5.0 mi Calm Calm - N/A   Overcast
11:53 PM 54.0 °F 52.0 °F 93% 30.30 in 7.0 mi Calm Calm - N/A   Overcast